Location: *
(37.5724°S, 58.0067°E)
Time: 10:38:43
(UTC+00:00)

USA 229 DEB - Pass Details

Date: 30 November 2021
Orbit: 943 x 1269 km, 63.4° (Epoch: 14 January)

Event Time Altitude Azimuth Distance (km) Brightness Sun altitude
Rises 16:15:01 0° 7° (N) 4,212 6.4 -11.0°
Reaches altitude 10° 16:18:22 10° 19° (NNE) 3,241 5.7 -11.6°
Maximum altitude 16:24:33 26° 71° (ENE) 2,233 4.8 -12.5°
Drops below altitude 10° 16:30:32 10° 123° (ESE) 3,147 6.0 -13.4°
Sets 16:33:43 0° 135° (SE) 4,069 6.7 -13.9°
